Voltar ao catálogo

STARLINK-3541

AtivoComunicaçõesVLEO
NORAD 51854·PAYLOAD·🇺🇸 United States

Lançado Mar 3, 2022 de Cape Canaveral Space Force Station

Loading…

Próximas Passagens (próximas 24 horas)

TLE

AtualizadoSource: CelesTrak SupGP

Época: Sep 14, 2026, 21:41 UTC

1 51854C 22022C   26257.90395833  .00040301  00000+0  17241-2 0  2574
2 51854  53.2152 235.5102 0004302  72.3669  58.8554 15.22271178    15

Acompanhe STARLINK-3541 em tempo real com AllMySat

Download on the App Store